{"data":{"norad_id":35942,"intl_designator":"2009-054A","name":"AMAZONAS 2","alt_names":[],"object_type":"PAYLOAD","status":"ACTIVE","operator":null,"country":"SPN","launch_date":"2009-10-01","launch_site_code":"FRGUI","launch_vehicle":null,"mission":null,"orbit_class":"UNKNOWN","rcs_meters":11.0159,"size_class":null,"mass_kg":null,"dimensions":null,"purposes":["comms"],"wikipedia_slug":null,"has_3d_model":false,"image_url":null,"decayed_at":null,"tle_current":{"epoch":"2026-05-16T11:12:30.210048Z","epoch_age_seconds":826504,"freshness":"AGED","line1":"1 35942U 09054A   26136.46701632 -.00000270  00000+0  00000+0 0  9996","line2":"2 35942   1.7333  83.3796 0004532  37.9482 220.0833  1.00221129 60861","mean_motion":1.00221129,"eccentricity":0.0004532,"inclination_deg":1.7333,"raan_deg":83.3796,"arg_perigee_deg":37.9482,"mean_anomaly_deg":220.0833,"bstar":0,"rev_number":6086,"period_min":1436.8227681809,"perigee_km":35781.68616289,"apogee_km":35819.91715289,"semimajor_km":42178.93865789,"source":"CELESTRAK","updated_at":"2026-05-25T13:38:13.866548Z"}}}